STARLINK-35920

Last updated on Wed Dec 31 2025 00:02:06 GMT+0000 (Coordinated Universal Time)

1 66623U 25271G 25364.55234302 .00081602 00000+0 20294-2 0 9999 2 66623 53.1606 103.0486 0001618 66.4695 293.6480 15.39602500 6953
UTC large
Height (km)
Speed (km/s)
/
Latitude / Longitude
Inclination (degrees)
Orbital Period (minutes)
Azimuth
Elevation
Range (km)
Doppler Factor

Next 0 passes for location: London (51.5072 / 0.1276)

Sorry there are no passes over London.